Location: Bottenau
(48.5138°N, 8.0462°E)
Time: 17:21:02
(UTC+00:00)

Exosat Rocket - Pass Details

Date: 18 April 2021
Orbit: 760 x 2515 km, 72.3° (Epoch: 06 May)

Event Time Altitude Azimuth Distance (km) Brightness Sun altitude
Rises 19:32:45 0° 333° (NNW) 4,263 8.4 -11.2°
Reaches altitude 10° 19:35:53 10° 334° (NNW) 3,053 7.6 -11.7°
Maximum altitude 19:42:42 90° 261° (W) 914 3.9 -12.6°
Enters shadow 19:47:18 14° 156° (SSE) 2,126 5.3 -13.2°
